Date String (YYYY-MM-DD hh:mm:ss) UTC,Instrument flags,absolute air pressure of the measurement (hPa),sample flow rate (lpm),inlet stack bypass flow (lpm),air temperature of the measurement (°C),ambient temperature measured by the external sensor (°C),aerosol sample conditioner tube jacket temperature (°C),OPC LED temperature (°C),internal box temperature (°C),relative humidity of the measurement (%),span deviation,mass concentration of particles derived from Lorenz-Mie calculation of OPC scattering (μg/m³),mass concentration of particles derived from Lorenz-Mie calculation of OPC scattering (μg/m³),mass concentration of particles derived from Lorenz-Mie calculation of OPC scattering (μg/m³)
DateTimeUTC,F1_M11,P_M11,Q1_M11,Q2_M11,T1_M11,T2_M11,T3_M11,T4_M11,T5_M11,U1_M11,ZSPAN_M11,X0_M11,X2_M11,X1_M11
2023-06-27 14:00:00,SystemResetWarning,0827.2,5.02,000.00,032.8,028.6,000.0,040.5,032.4,34.9,0002.2,0027.94,0010.71,0008.23
2023-06-27 14:01:00,SystemResetWarning,0827.1,4.98,000.00,032.9,028.7,000.0,040.6,032.5,34.5,0002.3,0027.42,0010.77,0008.24
2023-06-27 14:02:00,SystemResetWarning,0827.2,4.99,000.00,032.9,028.8,000.0,040.6,032.5,34.5,0002.5,0028.23,0010.80,0008.24
2023-06-27 14:03:00,SystemResetWarning,0827.2,5.03,000.00,032.9,028.8,000.0,040.6,032.5,34.8,0002.5,0029.12,0010.81,0008.23
2023-06-27 14:04:00,SystemResetWarning,0827.1,4.96,000.00,033.1,027.3,000.0,040.6,032.7,34.1,0002.5,0030.07,0010.83,0008.22
2023-06-27 14:05:00,SystemResetWarning,0827.2,5.03,000.00,033.1,025.5,000.0,040.6,032.6,33.8,0002.9,0030.32,0010.81,0008.21
2023-06-27 14:06:00,SystemResetWarning,0827.1,5.01,000.00,033.1,025.2,000.0,040.5,032.5,33.9,0003.2,0030.30,0010.82,0008.20
2023-06-27 14:07:00,SystemResetWarning,0827.1,4.99,000.00,032.9,025.5,000.0,040.5,032.1,33.9,0003.4,0030.47,0010.86,0008.19
2023-06-27 14:08:00,SystemResetWarning,0827.1,5.00,000.00,032.7,025.9,000.0,040.6,032.0,34.1,0003.2,0030.34,0010.87,0008.19
2023-06-27 14:09:00,SystemResetWarning,0827.1,5.00,000.00,032.6,026.4,000.0,040.6,032.0,34.1,0003.4,0030.76,0010.79,0008.16
2023-06-27 14:10:00,SystemResetWarning,0827.1,5.00,000.00,032.5,026.8,000.0,040.6,032.0,34.5,0003.4,0030.84,0010.72,0008.12
2023-06-27 14:11:00,SystemResetWarning,0827.1,5.00,000.00,032.5,027.2,000.0,040.5,032.0,34.6,0003.4,0030.95,0010.67,0008.11
2023-06-27 14:12:00,SystemResetWarning,0827.1,5.00,000.00,032.4,027.5,000.0,040.5,032.0,34.3,0003.5,0030.60,0010.63,0008.11
2023-06-27 14:13:00,SystemResetWarning,0827.1,5.00,000.00,032.3,027.7,000.0,040.5,032.1,34.5,0003.7,0030.64,0010.55,0008.11
2023-06-27 14:14:00,SystemResetWarning,0827.1,5.00,000.00,032.3,027.9,000.0,040.5,032.1,34.8,0003.8,0029.38,0010.55,0008.10
2023-06-27 14:15:00,SystemResetWarning,0827.1,5.02,000.00,032.2,028.1,000.0,040.5,032.1,34.6,0003.9,0028.26,0010.48,0008.08
2023-06-27 14:16:00,SystemResetWarning,0827.1,4.98,000.00,032.3,028.3,000.0,040.4,032.2,34.2,0003.8,0028.29,0010.44,0008.05
2023-06-27 14:17:00,SystemResetWarning,0827.1,5.02,000.00,032.2,028.4,000.0,040.4,032.2,33.6,0003.8,0029.63,0010.46,0008.05
2023-06-27 14:18:00,SystemResetWarning,0827.1,5.00,000.00,032.2,028.5,000.0,040.4,032.2,34.3,0003.4,0028.82,0010.39,0008.04
2023-06-27 14:19:00,SystemResetWarning,0827.1,5.00,000.00,032.2,028.6,000.0,040.4,032.2,34.4,0003.5,0028.85,0010.37,0008.03
2023-06-27 14:20:00,SystemResetWarning,0827.1,5.00,000.00,032.2,028.7,000.0,040.4,032.3,34.4,0003.3,0029.33,0010.39,0008.03
2023-06-27 14:21:00,SystemResetWarning,0827.0,4.98,000.00,032.2,028.7,000.0,040.4,032.3,34.9,0003.2,0029.35,0010.42,0008.04
2023-06-27 14:22:00,SystemResetWarning,0827.0,5.02,000.00,032.2,027.5,000.0,040.3,032.5,34.6,0003.1,0028.86,0010.47,0008.03
2023-06-27 14:23:00,SystemResetWarning,0827.0,4.98,000.00,032.3,025.7,000.0,040.2,032.4,34.4,0003.0,0029.95,0010.44,0007.99
2023-06-27 14:24:00,SystemResetWarning,0827.0,4.99,000.00,032.3,025.3,000.0,040.2,032.3,34.8,0002.8,0029.04,0010.40,0007.97
2023-06-27 14:25:00,SystemResetWarning,0827.0,5.02,000.00,032.1,025.5,000.0,040.1,031.9,34.7,0002.4,0029.25,0010.38,0007.95
2023-06-27 14:26:00,SystemResetWarning,0827.0,4.98,000.00,032.0,025.9,000.0,040.1,031.7,35.0,0002.0,0029.80,0010.44,0007.94
2023-06-27 14:27:00,SystemResetWarning,0826.9,5.02,000.00,032.0,026.3,000.0,040.1,031.8,35.5,0002.1,0029.57,0010.52,0007.93
2023-06-27 14:28:00,SystemResetWarning,0827.0,5.01,000.00,032.2,026.8,000.0,040.1,032.0,35.0,0002.4,0029.51,0010.50,0007.92
2023-06-27 14:29:00,SystemResetWarning,0826.9,4.98,000.00,032.4,027.1,000.0,040.1,032.1,34.6,0002.4,0028.72,0010.43,0007.89
2023-06-27 14:30:00,SystemResetWarning,0826.9,5.00,000.00,032.4,027.4,000.0,040.1,032.1,34.5,0002.2,0028.90,0010.40,0007.87
2023-06-27 14:31:00,SystemResetWarning,0826.9,5.01,000.00,032.5,027.7,000.0,040.2,032.1,34.5,0002.1,0029.79,0010.41,0007.84
2023-06-27 14:32:00,SystemResetWarning,0826.9,5.00,000.00,032.5,027.9,000.0,040.2,032.1,34.4,0002.1,0030.28,0010.39,0007.82
2023-06-27 14:33:00,SystemResetWarning,0827.0,4.99,000.00,032.5,028.1,000.0,040.2,032.1,34.2,0001.8,0030.12,0010.30,0007.80
2023-06-27 14:34:00,SystemResetWarning,0827.0,4.99,000.00,032.5,028.3,000.0,040.3,032.2,33.8,0001.5,0030.74,0010.35,0007.81
2023-06-27 14:35:00,SystemResetWarning,0826.9,5.00,000.00,032.5,028.4,000.0,040.3,032.2,33.4,0001.5,0031.73,0010.39,0007.79
2023-06-27 14:36:00,SystemResetWarning,0826.9,5.01,000.00,032.5,028.5,000.0,040.4,032.2,33.8,0001.3,0032.02,0010.35,0007.76
2023-06-27 14:37:00,SystemResetWarning,0826.7,5.00,000.00,032.4,028.6,000.0,040.4,032.3,34.4,0001.7,0030.90,0010.32,0007.75
2023-06-27 14:38:00,SystemResetWarning,0826.8,4.98,000.00,032.5,027.4,000.0,040.3,032.4,34.4,0001.6,0030.32,0010.14,0007.72
2023-06-27 14:39:00,SystemResetWarning,0826.8,5.01,000.00,032.5,025.7,000.0,040.3,032.3,34.1,0001.2,0029.28,0010.06,0007.69
2023-06-27 14:40:00,SystemResetWarning,0826.8,5.01,000.00,032.4,025.2,000.0,040.2,032.3,33.8,0001.1,0028.03,0010.07,0007.67
2023-06-27 14:41:00,SystemResetWarning,0826.9,5.00,000.00,032.2,025.5,000.0,040.2,031.9,32.9,0001.4,0028.04,0010.14,0007.63
2023-06-27 14:42:00,SystemResetWarning,0826.9,5.00,000.00,032.1,025.9,000.0,040.2,031.8,33.2,0001.3,0026.88,0010.13,0007.60
2023-06-27 14:43:00,SystemResetWarning,0826.9,5.01,000.00,032.0,026.3,000.0,040.2,031.8,34.3,0001.2,0025.99,0010.07,0007.57
2023-06-27 14:44:00,SystemResetWarning,0826.9,4.98,000.00,031.9,026.7,000.0,040.1,031.8,34.9,0001.2,0025.28,0010.07,0007.58
2023-06-27 14:45:00,SystemResetWarning,0826.8,5.02,000.00,031.9,027.1,000.0,040.1,031.8,35.2,0001.6,0024.06,0010.07,0007.56
2023-06-27 14:46:00,SystemResetWarning,0826.8,4.98,000.00,032.0,027.4,000.0,040.1,032.0,33.3,0001.9,0022.90,0010.07,0007.55
2023-06-27 14:47:00,SystemResetWarning,0826.8,5.01,000.00,032.0,027.7,000.0,040.1,032.0,33.0,0002.2,0022.18,0010.08,0007.53
2023-06-27 14:48:00,SystemResetWarning,0826.8,5.00,000.00,032.1,027.9,000.0,040.1,032.0,33.4,0002.0,0022.42,0010.05,0007.49
2023-06-27 14:49:00,SystemResetWarning,0826.8,4.97,000.00,032.1,028.1,000.0,040.1,032.1,34.9,0002.1,0024.17,0010.04,0007.48
2023-06-27 14:50:00,SystemResetWarning,0826.8,5.05,000.00,032.2,028.2,000.0,040.1,032.1,34.9,0002.3,0025.40,0010.05,0007.47
2023-06-27 14:51:00,SystemResetWarning,0826.8,4.96,000.00,032.2,028.4,000.0,040.1,032.2,33.6,0002.6,0025.29,0009.92,0007.45
2023-06-27 14:52:00,SystemResetWarning,0826.7,5.02,000.00,032.3,028.4,000.0,040.1,032.2,32.4,0003.0,0024.75,0009.78,0007.43
2023-06-27 14:53:00,SystemResetWarning,0826.7,4.99,000.00,032.4,027.2,000.0,040.1,032.3,32.5,0003.1,0025.09,0009.74,0007.43
2023-06-27 14:54:00,SystemResetWarning,0826.7,4.99,000.00,032.4,025.6,000.0,040.0,032.2,33.1,0003.3,0025.42,0009.72,0007.40
2023-06-27 14:55:00,SystemResetWarning,0826.8,5.01,000.00,032.4,025.2,000.0,040.0,032.2,34.1,0003.4,0025.29,0009.66,0007.37
2023-06-27 14:56:00,SystemResetWarning,0826.8,5.00,000.00,032.2,025.5,000.0,040.0,031.8,33.5,0003.4,0026.23,0009.58,0007.36
2023-06-27 14:57:00,SystemResetWarning,0826.8,5.00,000.00,032.0,025.9,000.0,040.0,031.7,33.7,0003.4,0026.82,0009.48,0007.35
2023-06-27 14:58:00,SystemResetWarning,0826.8,5.01,000.00,031.9,026.3,000.0,040.0,031.7,33.9,0003.1,0027.93,0009.51,0007.34
2023-06-27 14:59:00,SystemResetWarning,0826.6,5.00,000.00,031.9,026.8,000.0,040.0,031.7,34.2,0003.5,0027.93,0009.46,0007.34
